Flag for Poland Weather past 2 weeks in Tarnów, Poland

Now
60 °F

Cool.


Feels Like: 60 °F
Forecast: 60 / 74 °F
Wind: No wind

Location: Tarnow

Current Time: Sep 2, 2015 at 6:51:27 AM

Latest Report: Sep 2, 2015 at 5:00 AM


Visibility: 10 mi

Pressure: 29.79 "Hg

Humidity: 80%

Dew point: 54 °F

Location of TarnówLocation

Historic Weather in Tarnów — Graph

°F

Tarnów temperature yesterday

Maximum temperature yesterday: 97 °F (at 4:00 PM)
Minimum temperature yesterday: 66 °F (at 6:00 AM)
Average temperature yesterday: 82 °F

Past Weeks' High & Low Weather Summary

 TemperatureHumidityPressure
High97 °F (Sep 1, 4:00 PM)99% (Aug 30, 7:00 AM)30.32 "Hg (Aug 30, 7:00 AM)
Low47 °F (Aug 21, 5:00 AM)13% (Sep 1, 5:00 PM)29.71 "Hg (Sep 1, 6:00 PM)
Average70 °F55%30.06 "Hg
* Reported Aug 18 4:00 AM — Sep 2 4:00 AM, Tarnów, Weather by CustomWeather, © 2015

Note: Actual official high and low records may vary slightly from our data, if they occured in-between our weather recording intervals... More about our weather records

Advertising

Tarnów weather history for previous 24 hours

 ConditionsComfort  
Time TempWeatherWind HumidityBarometerVisibility
4:00 AM
Wed, Sep 2
61 °FCool.1 mph79%29.77 "Hg10 mi
3:00 AM63 °FMild.No wind75%29.77 "Hg12 mi
2:00 AM64 °FMild.No wind72%29.76 "Hg12 mi
1:00 AM65 °FMild.No wind68%29.77 "Hg16 mi
12:00 AM67 °FMild.1 mph63%29.77 "Hg17 mi
10:00 PM
Tue, Sep 1
75 °FMild.1 mph41%29.75 "Hg16 mi
9:00 PM77 °FPleasantly warm.2 mph36%29.74 "Hg12 mi
8:00 PM74 °FMild.1 mph34%29.74 "Hg8 mi
7:00 PM85 °FPleasantly warm.No wind21%29.72 "Hg25 mi
6:00 PM95 °FExtremely hot.1 mph13%29.71 "Hg28 mi
5:00 PM97 °FExtremely hot.2 mph13%29.71 "Hg31 mi
4:00 PM97 °FExtremely hot.2 mph14%29.72 "Hg22 mi
3:00 PM97 °FExtremely hot.2 mph15%29.74 "Hg22 mi
2:00 PM96 °FExtremely hot.2 mph15%29.75 "Hg18 mi
1:00 PM94 °FExtremely hot.2 mph18%29.76 "Hg22 mi
12:00 PM93 °FHot.3 mph18%29.77 "Hg22 mi
11:00 AM91 °FHot.3 mph25%29.79 "Hg17 mi
10:00 AM86 °FPleasantly warm.2 mph34%29.81 "Hg19 mi
9:00 AM82 °FWarm.2 mph43%29.83 "Hg16 mi
8:00 AM75 °FMild.1 mph64%29.85 "Hg9 mi
7:00 AM67 °FMild.1 mph82%29.86 "Hg7 mi
6:00 AM66 °FMild.No wind75%29.86 "Hg8 mi
Weather by CustomWeather, © 2015

See weather overviewHow to use our weather pages